Location: Famechon
(49.7599°N, 2.0615°E)
Time: 21:22:20
(UTC+00:00)

Cosmos 1741 Rocket - Pass Details

Date: 31 March 2025
Orbit: 758 x 778 km, 74.0° (Epoch: 28 April)

Event Time Altitude Azimuth Distance (km) Brightness Sun altitude
Rises 21:59:45 0° 344° (NNW) 3,236 8.3 -30.2°
Reaches altitude 10° 22:04:31 10° 23° (NNE) 2,311 6.8 -30.6°
Maximum altitude 22:05:37 11° 35° (NE) 2,269 6.7 -30.7°
Drops below altitude 10° 22:06:43 10° 47° (NE) 2,311 6.6 -30.8°
Enters shadow 22:06:57 10° 50° (NE) 2,330 6.6 -30.8°
